Location: Hurstbourne Priors
(51.2000°N, 1.3667°W)
Time: 22:39:23
(UTC+00:00)

Altair - Pass Details

Date: 18 April 2021
Orbit: 1501 x 1683 km, 47.2° (Epoch: 13 May)

Event Time Altitude Azimuth Distance (km) Brightness Sun altitude
Rises 03:47:51 0° 169° (S) 4,878 9.9 -11.5°
Reaches altitude 10° 03:54:16 10° 139° (SE) 3,856 9.7 -10.6°
Maximum altitude 03:56:54 11° 123° (ESE) 3,732 9.9 -10.3°
Drops below altitude 10° 03:59:30 10° 107° (ESE) 3,822 10.2 -9.9°
Sets 04:05:43 0° 78° (ENE) 4,764 11.7 -9.1°
